Regional Weather Roundup
Issued by NWS Cleveland, OH

Home | Current Version | Previous Version | Text Only | Print | Product List | Glossary Off
Versions: 1 2 3 4 5 6 7 8 9 10 11 12 13 14 15 16 17 18 19 20 21 22 23 24 25 26 27 28 29 30 31 32 33 34 35 36 37 38 39 40 41 42 43 44 45 46 47 48 49 50

000
ASUS41 KCLE 271910
RWRCLE
OHIO REGIONAL WEATHER ROUNDUP
NATIONAL WEATHER SERVICE WILMINGTON, OH
300 PM EDT THU AUG 27 2015

NOTE: "FAIR" INDICATES FEW OR NO CLOUDS BELOW 12,000 FEET WITH NO
SIGNIFICANT WEATHER AND/OR OBSTRUCTIONS TO VISIBILITY.

OHZ001>008-015>018-024>027-034-035-043-044-272000-
   NORTHWEST OHIO

CITY           SKY/WX    TMP DP  RH WIND       PRES   REMARKS
DEFIANCE       CLOUDY    72  54  53 NE5       30.17F
FINDLAY        PTSUNNY   73  55  53 VRB5      30.15F
TOLEDO EXPRESS CLOUDY    69  54  58 N5        30.17S
TOLEDO EXEC    CLOUDY    71  54  54 NE6       30.17F
LIMA           CLOUDY    72  54  53 SE5       30.16F
$$

OHZ009>014-019>023-028>033-038-089-272000-
   NORTHEAST OHIO

CITY           SKY/WX    TMP DP  RH WIND       PRES   REMARKS
CLE-HOPKINS    PTSUNNY   70  55  59 N10       30.20F
CLE-LAKEFRONT  PTSUNNY   68  56  65 N5        30.18F
CUY CO. ARPT   PTSUNNY   66  55  68 NW9       30.21R
LORAIN-ELYRIA  MOSUNNY   69  54  58 N7        30.18F
ASHTABULA      PTSUNNY   67  55  65 W16       30.20S
AKRON-CANTON   PTSUNNY   73  56  54 N10       30.18F
WOOSTER        MOSUNNY   70  53  54 CALM      30.17F
MANSFIELD      MOSUNNY   70  55  59 NW7       30.17F
YOUNGSTOWN     PTSUNNY   68  55  63 NW10      30.18F
$$

OHZ042-051>053-060>062-070>072-077>081-272000-
  SOUTHWEST OHIO

CITY           SKY/WX    TMP DP  RH WIND       PRES   REMARKS
CINC-COVINGTON CLOUDY    74  55  51 VRB6      30.15F
CINC-LUNKEN    PTSUNNY   74  57  55 NE8       30.15F
HAMILTON       PTSUNNY   77  56  48 E8        30.15F
DAYTON         PTSUNNY   73  54  51 VRB3      30.16F
WRIGHT-PAT AFB NOT AVBL
DAYTON GENERAL PTSUNNY   74  55  51 NE5       30.15F
WILMINGTON     PTSUNNY   74  55  51 MISG      30.16F
$$

OHZ036-037-039>041-045>050-054>059-063>069-073>076-082>088-272000-
  CENTRAL AND SOUTHEAST OHIO

CITY           SKY/WX    TMP DP  RH WIND       PRES   REMARKS
COLUMBUS       MOSUNNY   74  53  48 CALM      30.15F
OSU AIRPORT    PTSUNNY   73  54  51 E3        30.15F
BOLTON FIELD   PTSUNNY   72  57  60 SE3       30.16F
RICKENBACK AFB MOSUNNY   73  55  53 CALM      30.15F
NEWARK         PTSUNNY   73  52  47 CALM      30.15F
MARION         SUNNY     73  53  49 S6        30.16F
LANCASTER      MOSUNNY   73  55  53 CALM      30.16F
ZANESVILLE     PTSUNNY   75  50  41 W5        30.16F
NEW PHILLY     CLOUDY    71  56  58 NE5       30.17F
$$



USA.gov is the U.S. government's official web portal to all federal, state and local government web resources and services.